san ya , China , Asia

  • Saturday
    January 23

    Cloudy  Cloudy

    81 °F  64 °F

    South  Northeast

    3~4L   4~5L 

  • Sunday
    January 24

    Cloudy  Cloudy

    81 °F  64 °F

    East  Northeast

    4~5L   3~4L 

  • Monday
    January 25

    Cloudy  Cloudy

    81 °F  64 °F

    East  Northeast

    4~5L   3~4L 

  • Tuesday
    January 26

    Cloudy  Cloudy

    75 °F  59 °F

    East  No wind

    3~4L    

  • Wednesday
    January 27

    Cloudy  Sunny

    75 °F  64 °F

    East  No wind

    3~4L    

  • Thursday
    January 28

    Sunny  Sunny

    73 °F  59 °F

    East  No wind

    3~4L    

  • Friday
    January 29

    Sunny  Cloudy

    72 °F  63 °F

    East  No wind

    3~4L    

Date   Weather Temperature Humidity Total_rain Visibility Wind
17:00 Sunny 81°F 88.6% 0mm 231.1km Southwest  4.1m/s
20:00 Sunny 72°F 94.1% 0mm 230.8km Southeast  4.4m/s
23:00 Cloudy 70°F 95.7% 0mm 196.2km Northeast  2.7m/s
02:00 Cloudy 67°F 95.3% 0mm 116.5km Northeast  2.2m/s
05:00 Cloudy 66°F 93.8% 0mm 160.9km Northeast  3.5m/s
08:00 Cloudy 69°F 90.5% 0mm 173.5km Northeast  6.6m/s
11:00 Cloudy 75°F 78.5% 0mm 237.7km Northeast  5.3m/s
14:00 Sunny 82°F 92.8% 0mm 263.8km Southeast  5.7m/s
08:00 Cloudy 69°F 90.5% 0mm 173.5km Northeast  6.6m/s
11:00 Cloudy 75°F 78.5% 0mm 237.7km Northeast  5.3m/s
14:00 Sunny 82°F 92.8% 0mm 263.8km Southeast  5.7m/s
17:00 Cloudy 81°F 93.5% 0mm - Southeast  5.7m/s
20:00 Sunny 75°F 96.2% 0mm - Northeast  4.9m/s
23:00 Cloudy 66°F 98.9% 0mm - Northeast  6.0m/s
02:00 Cloudy 70°F 98.7% 0mm - Northeast  8.2m/s
05:00 Cloudy 70°F 97.7% 0mm - Northeast  6.1m/s
08:00 Sunny 73°F 96.6% 0mm - Northeast  6.5m/s
11:00 Cloudy 79°F 88.4% 0mm - Northeast  6.4m/s
14:00 Cloudy 82°F 81.3% 0mm - Northeast  5.2m/s
17:00 Sunny 77°F 83.8% 0mm - Northeast  5.6m/s
20:00 Sunny 66°F 88.1% 0mm - Northeast  6.5m/s
23:00 Sunny 67°F 92.4% 0mm - Northeast  7.8m/s
02:00 Sunny 68°F 86.1% 0mm - Northeast  9.1m/s
05:00 Sunny 68°F 85.1% 0mm - Northeast  8.9m/s
08:00 Cloudy 69°F 83.4% 0mm - Northeast  9.7m/s
11:00 Sunny 73°F 80.7% 0mm - Northeast  6.2m/s
14:00 Sunny 76°F 81.3% 0mm - Northeast  6.0m/s
17:00 Sunny 71°F 83% 0mm - Northeast  5.4m/s
20:00 Sunny 66°F 87.9% 0mm - Northeast  5.8m/s
23:00 Sunny 63°F 88.7% 0mm - Northeast  8.9m/s
02:00 Sunny 61°F 88.2% 0mm - Northeast  5.8m/s
05:00 Cloudy 60°F 88.1% 0mm - Northeast  6.9m/s
08:00 Cloudy 61°F 79.2% 0mm - Northeast  8.7m/s
11:00 Cloudy 75°F 69.2% 0mm - Northeast  6.2m/s
14:00 Cloudy 76°F 76.3% 0mm - Northeast  5.4m/s
17:00 Cloudy 73°F 77.5% 0mm - Northeast  5.5m/s
20:00 Sunny 67°F 88.4% 0mm - Northeast  5.9m/s
23:00 Sunny 65°F 89.2% 0mm - Northeast  6.9m/s
02:00 Sunny 65°F 90.9% 0mm - Northeast  6.8m/s
05:00 Sunny 65°F 91.9% 0mm - Northeast  6.5m/s
08:00 Sunny 67°F 83.6% 0mm - Northeast  6.5m/s
11:00 Sunny 71°F 67.9% 0mm - Northeast  5.9m/s
14:00 Sunny 74°F 75.2% 0mm - Northeast  5.8m/s
17:00 Sunny 74°F 81.4% 0mm - Northeast  5.7m/s
20:00 Sunny 67°F 84% 0mm - Northeast  6.8m/s
23:00 Sunny 65°F 90% 0mm - Northeast  6.4m/s
02:00 Sunny 63°F 93.1% 0mm - Northeast  7.0m/s
05:00 Sunny 63°F 94.7% 0mm - Northeast  6.8m/s
08:00 Sunny 60°F 85.3% 0mm - Northeast  9.3m/s
11:00 Sunny 64°F 76.3% 0mm - Northeast  6.1m/s
14:00 Sunny 73°F 76.9% 0mm - Northeast  5.1m/s
17:00 Sunny 71°F 81% 0mm - Northeast  7.1m/s
20:00 Sunny 66°F 84.1% 0mm - Northeast  7.3m/s
23:00 Cloudy 65°F 85.6% 0mm - Northeast  6.0m/s
02:00 Sunny 64°F 95.9% 0mm - Northeast  5.6m/s
05:00 Sunny 64°F 96.3% 0mm - Northeast  5.5m/s